Regional Weather Roundup
Issued by NWS

Home | Current Version | Previous Version | Graphics & Text | Print | Product List | Glossary On
Versions: 1 2 3 4 5 6 7 8 9 10 11 12 13 14 15 16 17 18 19 20 21 22 23 24
000
ASUS45 KTFX 201810
RWRMT
MONTANA REGIONAL WEATHER ROUNDUP
NATIONAL WEATHER SERVICE GREAT FALLS MT
1200 PM MDT WED SEP 20 2017

NOTE: "FAIR" INDICATES FEW OR NO CLOUDS BELOW 12000 FEET WITH NO
SIGNIFICANT WEATHER AND/OR OBSTRUCTIONS TO VISIBILITY.

MTZ001>007-043-201900-
WEST OF THE DIVIDE

CITY           SKY/WX    TMP DP  RH WIND       PRES   REMARKS
KALISPELL      PTSUNNY   49  36  61 SW12      29.58S
MISSOULA       CLOUDY    42  40  92 CALM      29.63F
BUTTE          CLOUDY    39  36  89 NW5       29.62F
MULLAN PASS    FOG       32  30  92 SW3       29.59R VSB 1
ANACONDA         N/A     37  36  93 SE8       29.61F WCI  31
DEER LODGE       N/A     39  37  93 S6        29.64S
EUREKA           N/A     48  34  57 CALM      29.56F
HAMILTON         N/A     41  37  87 S7        29.62F
LIBBY            N/A     48  41  76 E5        29.58F
$$

MTZ008-052>055-201900-
SOUTHWEST MONTANA

CITY           SKY/WX    TMP DP  RH WIND       PRES   REMARKS
BOZEMAN        CLOUDY    50  34  54 SE10      29.63F
DILLON         CLOUDY    51  29  42 SW16G25   29.63F
W YELLOWSTONE  CLOUDY    37  32  81 SW14G21   29.79F WCI  29
ENNIS          CLOUDY    48  28  46 S25G47    29.72R
$$

MTZ009-010-012-014-046-048-049-054-201900-
EAST SLOPES AND CENTRAL MONTANA

CITY           SKY/WX    TMP DP  RH WIND       PRES   REMARKS
CUT BANK       SUNNY     53  28  38 W20G26    29.47F
GREAT FALLS    CLOUDY    51  29  42 SW21G32   29.54S
HELENA         CLOUDY    45  37  73 NE5       29.61F
CHOTEAU          N/A     54  23  30 W23G29    29.51F
RAYNESFORD     PTSUNNY   50  29  43 SW22G28   29.56S
$$

MTZ011-013-016-021-045-047-050-051-201900-
NORTH CENTRAL MONTANA

CITY           SKY/WX    TMP DP  RH WIND       PRES   REMARKS
HAVRE          SUNNY     60  28  29 SW28G35   29.48S
LEWISTOWN      CLOUDY    54  26  34 SW20G28   29.58F
N BAR RANCH    PTSUNNY   54  23  30 SW16G22   29.61F
CHINOOK          N/A     59  27  29 SW18G29   29.48F
GEYSER         PTSUNNY   54  26  33 W26G38    29.52F
JUDITH GAP       N/A     51  26  37 SW25G33   29.59F
$$

MTZ017>020-022>027-061-062-201900-
NORTHEAST MONTANA

CITY           SKY/WX    TMP DP  RH WIND       PRES   REMARKS
GLASGOW        MOSUNNY   61  28  28 W21G28    29.53F
JORDAN           N/A     62  29  28 SW20G30   29.57F
SIDNEY         SUNNY     63  35  35 SW20G28   29.61F
WOLF POINT     SUNNY     62  32  32 SW15G24   29.56F
MALTA          SUNNY     61  27  27 W22G33    29.51S
PLENTYWOOD       N/A     57  32  38 SW16G25   29.56S
POPLAR           N/A     61  30  31 W12       29.57F
$$

MTZ028>42-056>058-201900-
SOUTHCENTRAL AND SOUTHEAST MONTANA

CITY           SKY/WX    TMP DP  RH WIND       PRES   REMARKS
BAKER          SUNNY     62  29  28 W17G25    29.69F
BILLINGS       MOSUNNY   61  27  27 SW16G29   29.62F
LIVINGSTON     CLOUDY    50  31  48 SW24G32   29.63S
MILES CITY     SUNNY     64  25  22 W18G30    29.64F
BIG TIMBER     PTSUNNY   54  27  35 SW15G28   29.66S
LAUREL           N/A     63  30  29 S20G29    29.63F
$$

REGIONAL REPORTS...DAKOTAS

CITY           SKY/WX    TMP DP  RH WIND       PRES   REMARKS
WILLISTON      SUNNY     61  38  42 SW16G23   29.61S
MINOT          SUNNY     64  41  42 SW15G25   29.61S
DICKINSON      SUNNY     63  35  35 SW24      29.67F
BEACH            N/A     61  34  36 SW16G25   29.69F
CROSBY           N/A     61  36  39 SW23G29   29.56F
TIOGA            N/A     59  36  41 W18G24    29.61S
WATFORD CITY     N/A     61  36  39 SW16G23   29.63S
BISMARCK       SUNNY     68  39  34 SW18G32   29.73S
GRAND FORKS    MOSUNNY   69  42  37 SW12G23   29.70R
FARGO          SUNNY     68  42  38 SW12      29.76R
BUFFALO SD       N/A     65  29  25 SW24G31   29.67
RAPID CITY     SUNNY     66  27  22 W15       29.81F
$$

REGIONAL REPORTS...WYOMING/IDAHO/WASHINGTON

CITY           SKY/WX    TMP DP  RH WIND       PRES   REMARKS
GILLETTE       SUNNY     59  27  29 SW25G38   29.76F
SHERIDAN       LGT RAIN  64  23  21 W16G29    29.71F
BUFFALO WY     SUNNY     58  20  22 VRB3      29.76F
CODY           SUNNY     55  25  31 W14G28    29.76S
YELLOWSTONE LA   N/A     34  31  88 VRB5      29.84
IDAHO FALLS    PTSUNNY   60  32  34 S26G39    29.78F
SALMON         SUNNY     54  37  52 S13       29.62F
BOISE          CLOUDY    62  36  37 SE16      29.66F
SPOKANE        PTSUNNY   48  41  76 W6        29.61F
$$

REGIONAL REPORTS...ALBERTA

CITY           SKY/WX    TMP DP  RH WIND       PRES   REMARKS
EDMONTON       PTSUNNY   43  39  87 N8        29.33S
CALGARY        CLOUDY    46  27  46 NW17      29.37S
LETHBRIDGE     MOSUNNY   55  23  28 W28G37    29.40S
MEDICINE HAT   MOSUNNY   59  27  29 SW20G29   29.38S
$$

REGIONAL REPORTS...SASKATCHEWAN

CITY           SKY/WX    TMP DP  RH WIND       PRES   REMARKS
SWIFT CURRENT  SUNNY     57  27  30 SW26G32   29.40F
REGINA         MOSUNNY   59  37  44 SW18G29   29.46R
SASKATOON      MOSUNNY   54  36  50 W6        29.37F
$$




USA.gov is the U.S. government's official web portal to all federal, state and local government web resources and services.